Regional Weather Roundup
Issued by NWS

Home | Current Version | Previous Version | Text Only | Print | Product List | Glossary Off
Versions: 1 2 3 4 5 6 7 8 9 10 11 12 13 14 15 16 17 18 19 20 21 22 23 24 25 26 27 28 29 30 31 32 33 34 35 36 37 38 39 40 41 42 43 44 45 46 47 48 49 50

000
ASUS45 KBOU 021810
RWRCO

WEATHER ROUNDUP FOR COLORADO
NATIONAL WEATHER SERVICE PUEBLO CO
1200 PM MDT SUN AUG 02 2015

NOTE: "FAIR" INDICATES FEW OR NO CLOUDS BELOW 12000 FEET WITH NO
SIGNIFICANT WEATHER AND/OR OBSTRUCTIONS TO VISIBILITY.

COZ001>005-013-030-031-021900-
...NORTHWEST COLORADO...

CITY           SKY/WX    TMP DP  RH WIND       PRES   REMARKS
CRAIG          MOSUNNY   85  47  26 NW7       30.18F
HAYDEN         MOSUNNY   79  45  29 W7        30.21F
MEEKER         PTSUNNY   79  46  31 VRB3      30.20F
MOUNT WERNER   NOT AVBL
STEAMBOAT SPGS FAIR      77  44  30 S3        30.22F
WALDEN         FAIR      75  32  20 W6        30.31F
$$

COZ006>008-011-021900-
...WEST CENTRAL VALLEYS...

CITY           SKY/WX    TMP DP  RH WIND       PRES   REMARKS
GRAND JUNCTION CLOUDY    75  54  47 E10       30.13F
MONTROSE       CLOUDY    71  53  52 CALM      30.22F
EAGLE          PTSUNNY   77  43  29 W6        30.23F
RIFLE          CLOUDY    75  48  38 NW7       30.17F
DELTA          NOT AVBL
NUCLA          LGT RAIN  61  59  94 CALM      30.29F
$$

COZ017>023-064>068-021900-
...SOUTHWEST COLORADO...

CITY           SKY/WX    TMP DP  RH WIND       PRES   REMARKS
DURANGO        CLOUDY    73  53  49 CALM      30.25F
CORTEZ         SUNNY     72  60  66 CALM      30.21F
PAGOSA SPRINGS FAIR      72  46  39 W6        30.32F
TELLURIDE      LGT RAIN  58  54  87 CALM      30.44S
WOLF CREEK PAS NOT AVBL
$$

COZ009-010-012-014-032>034-037-058>063-021900-
...CENTRAL COLORADO...

CITY           SKY/WX    TMP DP  RH WIND       PRES   REMARKS
ASPEN          CLOUDY    71  47  42 VRB5      30.30F
BUENA VISTA    FAIR      75  42  30 NW3       30.30S
COPPER MTN     MOSUNNY   68  34  28 E9G17     30.62F
BERTHOUD PASS  FAIR      52  41  66 E9        30.68S
COTTONWOOD PAS PTSUNNY   77  36  22 E5        30.45F
GUNNISON       PTSUNNY   66  52  59 W10       30.34F
KREMMLING      PTSUNNY   77  34  20 W3        30.27F
LEADVILLE      LGT RAIN  65  39  38 S6        30.43F
MONARCH PASS   CLOUDY    55  41  58 E15       30.71S
SALIDA         NOT AVBL
NIWOT RIDGE    NOT AVBL
SUNLIGHT       CLOUDY    61  48  63 CALM      30.57S
WILKERSON PASS MOSUNNY   64  34  32 S3        30.60S
$$

COZ069>075-021900-
...SAN LUIS VALLEY/SANGRE DE CRISTO MOUNTAINS...

CITY           SKY/WX    TMP DP  RH WIND       PRES   REMARKS
ALAMOSA        MOSUNNY   72  49  44 S5        30.29F
LA VETA PASS   MOSUNNY   63  43  48 MISG      30.49S
SAGUACHE       PTSUNNY   72  50  46 S6        30.32F
$$

COZ035-036-038>040-021900-
...NORTHERN COLORADO FRONT RANGE...

CITY           SKY/WX    TMP DP  RH WIND       PRES   REMARKS
DENVER INTL AP PTSUNNY   90  44  20 E8        30.08F
DMNS CITY PARK NOT AVBL
AURORA         PTSUNNY   89  44  20 SE5       30.10F
FRONT RANGE AP PTSUNNY   88  41  19 MISG        N/A
ERIE MUNI ARPT FAIR      87  47  24 E8        30.07F
BOULDER MUN AP FAIR      86  48  26 CALM      30.08S
CENTENNIAL     PTSUNNY   87  40  19 SE10      30.12F
BROOMFIELD     PTSUNNY   86  50  28 VRB5        N/A
LOVELAND       MOSUNNY   88  54  31 NE6       30.05F
LONGMONT       FAIR      90  49  24 E3        30.08F
$$

COZ041-046-047-076>085-087-088-021900-
...PIKES PEAK/PALMER DIVIDE AND SOUTHERN FOOTHILLS...

CITY           SKY/WX    TMP DP  RH WIND       PRES   REMARKS
COLO. SPRINGS  MOSUNNY   83  49  30 S10       30.19S
A. F. ACADEMY  SUNNY     83  46  26 SE10      30.19F
ELLICOTT       FAIR     N/A N/A N/A S7        30.17S
FALCON         FAIR      77  50  37 S10       30.25S
FORT CARSON    SUNNY     83  53  34 SE9       30.15F
LIMON          SUNNY     86  46  24 SE12      30.13F
MONUMENT HILL  NOT AVBL
TRINIDAD       MOSUNNY   83  47  28 CALM      30.14F
$$

COZ042>045-048>051-090-091-021900-
...NORTHEAST COLORADO...

CITY           SKY/WX    TMP DP  RH WIND       PRES   REMARKS
GREELEY ARPT   SUNNY     88  55  33 E3        30.06F
AKRON          SUNNY     89  47  23 SE17      30.07F
BURLINGTON     SUNNY     88  55  32 VRB7      30.04F
WRAY           FAIR      92  49  22 SE6       30.00F
STERLING       FAIR      90  59  35 S6        30.00F
HOLYOKE        FAIR      95  57  28 S9        29.99F
FORT MORGAN    FAIR      87  52  30 E6        30.05F
$$

COZ086-089-092>099-021900-
...SOUTHEAST COLORADO...

CITY           SKY/WX    TMP DP  RH WIND       PRES   REMARKS
PUEBLO         SUNNY     86  52  30 S6        30.06F
LA JUNTA       MOSUNNY   92  51  24 E12       30.04S
LAMAR          SUNNY     91  62  37 MISG      29.98F
SPRINGFIELD      N/A     89  54  30 E8        30.03F
$$




USA.gov is the U.S. government's official web portal to all federal, state and local government web resources and services.